Terminal Aerodrome Forecast
Issued by NWS

Home | Current Version | Previous Version | Text Only | Print | Product List | Glossary Off
Versions: 1 2 3 4 5 6 7 8 9 10 11 12 13 14 15 16 17 18 19 20 21 22 23 24 25 26 27 28 29

000
FTUS45 KGGW 131124
TAFOLF
TAF
KOLF 131124Z 1312/1412 08009KT P6SM BKN120
     FM131500 09005KT P6SM BKN060
     FM131800 VRB03KT P6SM VCSH BKN045
     FM132100 26008KT P6SM VCSH OVC080
     FM140000 27011KT P6SM BKN100=

USA.gov is the U.S. government's official web portal to all federal, state and local government web resources and services.